Weather History for O'Neill, NE

Change the Weather History Date:

Sunday, April 27, 2014

  Actual Average Record
Temperature  
Mean Temperature 61 °F -  
Max Temperature 75 °F 63 °F 90 °F (1981)
Min Temperature 47 °F 39 °F 20 °F (1950)
Degree Days  
Heating Degree Days 4    
Growing Degree Days 11 (Base 50)    
Moisture  
Dew Point 51 °F    
Average Humidity 66    
Maximum Humidity 89    
Minimum Humidity 34    
Precipitation  
Precipitation 0.03 in - - ()
Sea Level Pressure  
Sea Level Pressure 29.27 in    
Wind  
Wind Speed 20 mph (SE)    
Max Wind Speed 30 mph    
Max Gust Speed 38 mph    
Visibility 10 miles    
Events Rain , Thunderstorm    
Averages and records for this station are not official NWS values.
T = Trace of Precipitation, MM = Missing Value Source: NWS Daily Summary

Daily Weather History Graph

Daily Weather History Graph

Search for Another Location

Airport:

Trip Planner

Search our weather history database for the weather conditions in past years. The results will help you decide how hot, cold, wet, or windy it might be!

Date:

Astronomy

Apr. 27, 2014 Rise Set
Actual Time 6:35 AM CDT 8:30 PM CDT
Civil Twilight 6:04 AM CDT 9:00 PM CDT
Nautical Twilight 5:28 AM CDT 9:37 PM CDT
Astronomical Twilight 4:47 AM CDT 10:18 PM CDT
Moon 5:39 AM CDT (4/27) 7:03 PM CDT (4/27)
Length of Visible Light 14h 55m
Length of Day
13h 54m
Waning Crescent, 3% of the Moon is Illuminated
Apr 27
Waning Crescent
Apr 29
New
May 6
First Quarter
May 14
Full
May 21
Last Quarter

Hourly Weather History & Observations

Time (CDT) Temp. Dew Point Humidity Pressure Visibility Wind Dir Wind Speed Gust Speed Precip Events Conditions
12:15 AM 67.3 °F 54.1 °F 63% 29.37 in 10.0 mi SE 26.5 mph 34.5 mph N/A   Clear
12:35 AM 67.3 °F 53.8 °F 62% 29.36 in 10.0 mi ESE 23.0 mph 32.2 mph N/A   Clear
12:55 AM 67.5 °F 54.0 °F 62% 29.36 in 10.0 mi ESE 25.3 mph 36.8 mph N/A   Clear
1:15 AM 67.1 °F 54.0 °F 63% 29.36 in 10.0 mi ESE 24.2 mph 29.9 mph N/A   Clear
1:35 AM 66.7 °F 53.8 °F 63% 29.35 in 10.0 mi ESE 21.9 mph 38.0 mph N/A   Clear
1:55 AM 64.9 °F 51.6 °F 62% 29.35 in 10.0 mi ESE 19.6 mph 25.3 mph N/A   Clear
2:15 AM 63.9 °F 51.1 °F 63% 29.35 in 10.0 mi ESE 21.9 mph 27.6 mph N/A   Clear
2:35 AM 63.1 °F 51.3 °F 65% 29.33 in 10.0 mi SE 20.7 mph 28.8 mph N/A   Clear
2:55 AM 62.4 °F 51.3 °F 67% 29.32 in 10.0 mi ESE 24.2 mph 31.1 mph N/A   Clear
3:15 AM 61.7 °F 51.3 °F 69% 29.32 in 10.0 mi ESE 19.6 mph 27.6 mph N/A   Clear
3:35 AM 61.5 °F 51.4 °F 69% 29.32 in 10.0 mi ESE 18.4 mph 25.3 mph N/A   Clear
3:55 AM 61.3 °F 51.8 °F 71% 29.31 in 10.0 mi ESE 18.4 mph 26.5 mph N/A   Clear
4:15 AM 61.2 °F 51.8 °F 71% 29.30 in 10.0 mi SE 18.4 mph 25.3 mph N/A   Clear
4:35 AM 61.3 °F 52.0 °F 71% 29.29 in 10.0 mi SE 20.7 mph 27.6 mph N/A   Clear
4:55 AM 61.0 °F 52.0 °F 72% 29.29 in 10.0 mi SE 17.3 mph 31.1 mph N/A   Clear
5:15 AM 60.8 °F 52.3 °F 74% 29.29 in 10.0 mi SE 18.4 mph 23.0 mph N/A   Clear
5:35 AM 60.6 °F 52.9 °F 76% 29.28 in 10.0 mi SE 16.1 mph - N/A   Clear
5:55 AM 60.8 °F 53.6 °F 77% 29.27 in 10.0 mi SE 16.1 mph 20.7 mph N/A   Clear
6:15 AM 61.0 °F 54.0 °F 78% 29.27 in 10.0 mi SE 13.8 mph 18.4 mph N/A   Clear
6:35 AM 61.5 °F 54.7 °F 78% 29.27 in 10.0 mi SE 15.0 mph 20.7 mph N/A   Clear
6:55 AM 62.1 °F 55.4 °F 79% 29.26 in 10.0 mi SE 12.7 mph 19.6 mph N/A   Clear
7:15 AM 62.6 °F 55.9 °F 79% 29.27 in 10.0 mi SE 12.7 mph 20.7 mph N/A   Clear
7:35 AM 63.5 °F 56.7 °F 78% 29.27 in 10.0 mi SE 16.1 mph 23.0 mph N/A   Scattered Clouds
7:55 AM 64.8 °F 57.6 °F 77% 29.27 in 7.0 mi SE 16.1 mph 25.3 mph N/A   Overcast
8:15 AM 65.7 °F 58.1 °F 77% 29.28 in 7.0 mi SE 16.1 mph 24.2 mph N/A   Overcast
8:35 AM 66.4 °F 58.5 °F 76% 29.27 in 7.0 mi SE 19.6 mph 25.3 mph N/A   Overcast
8:55 AM 66.7 °F 58.5 °F 75% 29.28 in 7.0 mi SE 19.6 mph 27.6 mph N/A   Overcast
9:15 AM 66.7 °F 58.6 °F 75% 29.28 in 7.0 mi SE 23.0 mph 29.9 mph N/A   Overcast
9:35 AM 67.1 °F 59.0 °F 75% 29.26 in 7.0 mi SE 20.7 mph 31.1 mph N/A   Mostly Cloudy
9:55 AM 67.3 °F 59.0 °F 75% 29.26 in 7.0 mi SE 20.7 mph 26.5 mph N/A   Mostly Cloudy
10:15 AM 67.3 °F 59.0 °F 75% 29.26 in 7.0 mi SSE 21.9 mph 28.8 mph N/A   Overcast
10:35 AM 68.0 °F 59.5 °F 74% 29.26 in 7.0 mi SSE 20.7 mph 31.1 mph N/A   Overcast
10:55 AM 68.9 °F 58.8 °F 70% 29.26 in 10.0 mi SSE 20.7 mph 27.6 mph N/A   Scattered Clouds
11:15 AM 69.4 °F 55.0 °F 60% 29.27 in 10.0 mi SE 17.3 mph 31.1 mph N/A   Scattered Clouds
11:35 AM 68.9 °F 52.7 °F 56% 29.28 in 10.0 mi ESE 19.6 mph 23.0 mph N/A   Scattered Clouds
11:55 AM 69.3 °F 51.1 °F 52% 29.28 in 10.0 mi SE 17.3 mph 23.0 mph N/A   Clear
12:35 PM 69.8 °F 48.6 °F 47% 29.28 in 10.0 mi SE 19.6 mph 31.1 mph N/A   Clear
12:55 PM 68.9 °F 48.2 °F 48% 29.27 in 10.0 mi SE 24.2 mph 29.9 mph N/A   Clear
1:10 PM 69.3 °F 47.5 °F 46% 29.24 in 10.0 mi SE 19.6 mph 27.6 mph N/A   Clear
1:35 PM 69.1 °F 46.6 °F 45% 29.23 in 10.0 mi SE 21.9 mph 33.4 mph N/A   Clear
1:55 PM 69.6 °F 47.8 °F 46% 29.22 in 10.0 mi ESE 29.9 mph 34.5 mph N/A   Clear
2:15 PM 71.6 °F 47.7 °F 43% 29.22 in 10.0 mi SE 24.2 mph 31.1 mph N/A   Clear
2:35 PM 71.8 °F 45.9 °F 39% 29.22 in 10.0 mi ESE 23.0 mph 31.1 mph N/A   Mostly Cloudy
2:55 PM 75.4 °F 45.1 °F 34% 29.22 in 10.0 mi ESE 23.0 mph 31.1 mph N/A   Mostly Cloudy
3:15 PM 73.6 °F 44.1 °F 35% 29.20 in 10.0 mi SE 24.2 mph 32.2 mph N/A   Scattered Clouds
3:35 PM 73.6 °F 45.3 °F 36% 29.19 in 10.0 mi SE 17.3 mph 27.6 mph N/A   Scattered Clouds
3:55 PM 73.4 °F 45.1 °F 36% 29.19 in 10.0 mi ESE 20.7 mph 26.5 mph N/A   Mostly Cloudy
4:15 PM 72.7 °F 46.9 °F 40% 29.19 in 10.0 mi ESE 19.6 mph 24.2 mph N/A   Overcast
4:35 PM 71.6 °F 48.4 °F 44% 29.19 in 10.0 mi ESE 19.6 mph 24.2 mph N/A   Overcast
5:15 PM 71.2 °F 50.4 °F 48% 29.18 in 10.0 mi ESE 15.0 mph 20.7 mph N/A   Overcast
5:35 PM 70.7 °F 51.4 °F 50% 29.18 in 10.0 mi East 19.6 mph 26.5 mph N/A   Overcast
5:55 PM 69.8 °F 52.3 °F 54% 29.18 in 10.0 mi East 16.1 mph - N/A   Mostly Cloudy
6:15 PM 66.2 °F 54.9 °F 67% 29.19 in 10.0 mi East 16.1 mph 26.5 mph N/A Thunderstorm Scattered Clouds
6:35 PM 65.3 °F 54.3 °F 68% 29.20 in 10.0 mi East 16.1 mph 25.3 mph N/A   Scattered Clouds
6:55 PM 64.4 °F 52.0 °F 64% 29.23 in 10.0 mi SSW 10.4 mph 19.6 mph N/A Thunderstorm Mostly Cloudy
7:15 PM 63.0 °F 43.5 °F 49% 29.25 in 10.0 mi West 19.6 mph 26.5 mph N/A   Overcast
7:35 PM 57.4 °F 46.2 °F 66% 29.26 in 10.0 mi West 19.6 mph 26.5 mph N/A   Mostly Cloudy
7:55 PM 54.7 °F 45.5 °F 71% 29.26 in 10.0 mi West 10.4 mph - N/A Thunderstorm Scattered Clouds
8:15 PM 53.8 °F 45.5 °F 74% 29.27 in 10.0 mi West 10.4 mph - N/A   Scattered Clouds
8:35 PM 52.2 °F 45.5 °F 78% 29.27 in 10.0 mi West 8.1 mph - N/A   Scattered Clouds
8:55 PM 50.7 °F 45.7 °F 83% 29.26 in 10.0 mi WNW 9.2 mph - N/A   Clear
9:15 PM 48.7 °F 44.4 °F 85% 29.27 in 10.0 mi WNW 8.1 mph - N/A   Clear
9:35 PM 48.9 °F 44.6 °F 85% 29.28 in 10.0 mi WNW 9.2 mph - N/A   Mostly Cloudy
9:55 PM 49.1 °F 44.6 °F 84% 29.27 in 10.0 mi NW 11.5 mph - N/A   Overcast
10:15 PM 49.5 °F 45.1 °F 85% 29.29 in 10.0 mi NW 12.7 mph - N/A   Overcast
10:35 PM 48.9 °F 44.6 °F 85% 29.28 in 10.0 mi WNW 15.0 mph - N/A Rain , Thunderstorm Light Thunderstorms and Rain
10:55 PM 48.0 °F 43.9 °F 86% 29.28 in 10.0 mi West 15.0 mph 21.9 mph N/A Rain Light Rain
11:15 PM 47.8 °F 44.1 °F 87% 29.26 in 10.0 mi NW 18.4 mph - 0.01 in Rain , Thunderstorm Light Thunderstorms and Rain
11:35 PM 48.6 °F 45.3 °F 89% 29.25 in 10.0 mi North 9.2 mph - 0.01 in Rain Light Rain
11:55 PM 50.0 °F 46.4 °F 87% 29.24 in 10.0 mi NW 8.1 mph - 0.03 in Rain Rain